Location: Blanot
(47.1713°N, 4.2340°E)
Time: 13:53:55
(UTC+00:00)

X-37B - Pass Details

Date: 11 March 2021
Orbit: 380 x 394 km, 45.0° (Epoch: 07 April)

Event Time Altitude Azimuth Distance (km) Brightness Sun altitude
Rises 19:14:40 0° 217° (SW) 2,264 4.8 -16.3°
Reaches altitude 10° 19:17:07 10° 198° (SSW) 1,416 3.5 -16.7°
Enters shadow 19:18:24 16° 176° (S) 1,113 2.7 -16.9°
